Date String (YYYY-MM-DD hh:mm:ss) UTC,Instrument flags,Ambient pressure (hPa),Sample flow (lpm),Bypass flow (lpm),Sample temperature (°C),Ambient temperature (°C),ASC tube jacket temperature (°C),LED temperature (°C),Box temperature (°C),Sample RH (%),Span deviation,Mass concentration (μg/m³),Mass concentration (μg/m³),Mass concentration (μg/m³)
DateTimeUTC,F1_M11,P_M11,Q1_M11,Q2_M11,T1_M11,T2_M11,T3_M11,T4_M11,T5_M11,U1_M11,ZSPAN_M11,X0_M11,X2_M11,X1_M11
2022-09-02 20:00:00,,0829.9,5.00,0.00,29.4,26.7,00.0,38.0,31.2,17.5,0000.0,0021.19,0010.14,0008.70
2022-09-02 20:01:00,,0829.9,5.01,0.00,29.3,27.0,00.0,38.0,31.1,17.7,0000.0,0020.63,0010.04,0008.66
2022-09-02 20:02:00,,0829.9,5.00,0.00,29.3,27.3,00.0,38.0,31.1,17.8,0000.0,0020.73,0010.00,0008.63
2022-09-02 20:03:00,,0829.8,5.01,0.00,29.3,27.6,00.0,38.0,31.1,17.7,0001.0,0020.77,0009.98,0008.61
2022-09-02 20:04:00,,0829.9,4.99,0.00,29.4,27.9,00.0,38.0,31.3,17.8,0001.3,0020.66,0009.94,0008.59
2022-09-02 20:05:00,,0829.9,5.01,0.00,29.4,28.2,00.0,38.0,31.4,18.0,0000.0,0020.96,0009.94,0008.56
2022-09-02 20:06:00,,0829.8,5.00,0.00,29.5,28.2,00.0,38.0,31.4,17.9,0000.0,0020.69,0009.95,0008.54
2022-09-02 20:07:00,,0829.8,4.99,0.00,29.5,27.3,00.0,38.0,31.3,18.0,0000.0,0021.41,0009.97,0008.54
2022-09-02 20:08:00,,0829.9,5.01,0.00,29.4,26.6,00.0,38.0,31.2,18.1,0000.0,0021.91,0010.03,0008.57
2022-09-02 20:09:00,,0829.9,5.00,0.00,29.4,26.8,00.0,38.0,31.3,17.8,0001.4,0021.29,0010.06,0008.62
2022-09-02 20:10:00,,0829.9,4.99,0.00,29.4,27.1,00.0,38.0,31.2,17.8,0002.4,0021.04,0010.07,0008.66
2022-09-02 20:11:00,,0829.9,5.01,0.00,29.4,27.4,00.0,38.0,31.1,17.6,0002.7,0021.37,0010.08,0008.71
2022-09-02 20:12:00,,0829.9,5.00,0.00,29.4,27.7,00.0,38.0,31.2,17.8,0002.5,0022.10,0010.08,0008.75
2022-09-02 20:13:00,,0829.9,5.01,0.00,29.4,28.0,00.0,38.0,31.3,17.6,0002.3,0022.82,0010.08,0008.78
2022-09-02 20:14:00,,0829.8,4.99,0.00,29.5,28.1,00.0,38.0,31.3,17.9,0002.4,0022.89,0010.07,0008.79
2022-09-02 20:15:00,,0829.8,5.01,0.00,29.5,27.2,00.0,38.0,31.2,17.5,0002.4,0023.57,0010.06,0008.78
2022-09-02 20:16:00,,0829.8,5.00,0.00,29.4,26.6,00.0,38.0,31.2,17.7,0002.5,0023.59,0010.07,0008.79
2022-09-02 20:17:00,,0829.8,4.99,0.00,29.4,26.8,00.0,38.0,31.2,18.0,0002.8,0023.63,0010.13,0008.81
2022-09-02 20:18:00,,0829.9,5.00,0.00,29.4,27.1,00.0,38.0,31.1,17.3,0003.0,0023.57,0010.19,0008.82
2022-09-02 20:19:00,,0829.9,5.00,0.00,29.4,27.4,00.0,38.0,31.1,17.6,0003.3,0023.14,0010.19,0008.79
2022-09-02 20:20:00,,0829.9,5.01,0.00,29.4,27.7,00.0,38.0,31.2,17.2,0003.4,0023.02,0010.17,0008.77
2022-09-02 20:21:00,,0829.9,5.01,0.00,29.4,28.0,00.0,38.0,31.3,17.3,0003.2,0022.95,0010.15,0008.74
2022-09-02 20:22:00,,0830.0,4.99,0.00,29.5,28.2,00.0,38.0,31.3,17.7,0003.2,0023.38,0010.17,0008.72
2022-09-02 20:23:00,,0829.9,5.00,0.00,29.5,27.8,00.0,38.0,31.4,17.2,0003.1,0022.90,0010.16,0008.69
2022-09-02 20:24:00,,0830.0,5.01,0.00,29.5,26.7,00.0,38.0,31.2,17.3,0001.1,0022.63,0010.16,0008.69
2022-09-02 20:25:00,,0830.0,4.99,0.00,29.4,26.7,00.0,38.0,31.3,17.6,0000.0,0023.09,0010.20,0008.69
2022-09-02 20:26:00,,0829.9,5.01,0.00,29.4,27.0,00.0,38.0,31.2,18.0,0000.0,0023.32,0010.27,0008.72
2022-09-02 20:27:00,,0829.9,5.00,0.00,29.4,27.3,00.0,38.0,31.1,18.0,0001.8,0024.17,0010.26,0008.72
2022-09-02 20:28:00,,0829.9,5.01,0.00,29.4,27.6,00.0,38.0,31.2,17.8,0002.3,0024.43,0010.21,0008.71
2022-09-02 20:29:00,,0829.9,5.00,0.00,29.4,27.9,00.0,38.0,31.2,17.8,0002.0,0024.28,0010.20,0008.72
2022-09-02 20:30:00,,0830.0,4.99,0.00,29.4,28.1,00.0,38.0,31.3,18.0,0000.6,0024.67,0010.21,0008.74
2022-09-02 20:31:00,,0830.0,4.99,0.00,29.5,27.7,00.0,38.0,31.3,17.7,0000.8,0024.71,0010.23,0008.75
2022-09-02 20:32:00,,0830.0,5.00,0.00,29.4,26.7,00.0,38.0,31.1,17.4,0000.7,0024.98,0010.29,0008.77
2022-09-02 20:33:00,,0830.0,5.00,0.00,29.4,26.5,00.0,38.0,31.1,17.5,0000.2,0025.33,0010.31,0008.77
2022-09-02 20:34:00,,0830.1,5.01,0.00,29.4,26.8,00.0,38.0,31.1,17.7,0000.4,0025.28,0010.36,0008.79
2022-09-02 20:35:00,,0830.0,5.00,0.00,29.3,27.1,00.0,38.0,31.1,17.8,0000.7,0025.18,0010.38,0008.77
2022-09-02 20:36:00,,0830.0,5.00,0.00,29.3,27.4,00.0,38.0,31.1,17.6,0001.1,0024.83,0010.39,0008.74
2022-09-02 20:37:00,,0830.1,5.01,0.00,29.4,27.7,00.0,38.0,31.2,17.7,0001.3,0024.53,0010.35,0008.71
2022-09-02 20:38:00,,0830.1,5.01,0.00,29.4,28.0,00.0,38.0,31.3,17.4,0001.5,0023.93,0010.32,0008.71
2022-09-02 20:39:00,,0830.0,4.98,0.00,29.4,27.6,00.0,38.0,31.3,17.1,0001.6,0023.88,0010.24,0008.69
2022-09-02 20:40:00,,0830.0,5.00,0.00,29.4,26.5,00.0,38.0,31.1,17.2,0001.9,0023.23,0010.15,0008.64
2022-09-02 20:41:00,,0829.9,5.00,0.00,29.3,26.4,00.0,38.0,31.1,17.4,0001.8,0022.19,0010.12,0008.63
2022-09-02 20:42:00,,0829.9,5.00,0.00,29.3,26.7,00.0,37.9,31.0,17.5,0002.1,0021.70,0010.07,0008.61
2022-09-02 20:43:00,,0829.9,5.01,0.00,29.3,27.0,00.0,37.9,31.0,17.4,0002.1,0021.66,0010.03,0008.59
2022-09-02 20:44:00,,0829.9,5.00,0.00,29.3,27.4,00.0,37.9,31.0,17.6,0002.5,0020.99,0010.00,0008.56
2022-09-02 20:45:00,,0829.9,5.00,0.00,29.3,27.6,00.0,37.9,31.1,17.7,0003.3,0020.56,0009.95,0008.53
2022-09-02 20:46:00,,0829.9,5.01,0.00,29.3,27.9,00.0,37.9,31.2,17.4,0003.3,0020.01,0009.93,0008.50
2022-09-02 20:47:00,,0829.9,4.98,0.00,29.4,28.0,00.0,38.0,31.3,17.0,0002.7,0019.95,0009.87,0008.49
2022-09-02 20:48:00,,0830.0,5.01,0.00,29.4,27.0,00.0,38.0,31.1,17.0,0003.1,0020.05,0009.86,0008.48
2022-09-02 20:49:00,,0830.0,5.00,0.00,29.3,26.3,00.0,38.0,31.0,17.0,0003.5,0019.60,0009.82,0008.46
2022-09-02 20:50:00,,0830.0,5.00,0.00,29.3,26.5,00.0,37.9,31.1,17.6,0003.7,0020.06,0009.87,0008.44
2022-09-02 20:51:00,,0829.9,4.99,0.00,29.2,26.8,00.0,37.9,30.9,17.3,0003.7,0020.45,0009.89,0008.44
2022-09-02 20:52:00,,0829.9,5.00,0.00,29.2,27.1,00.0,37.9,31.0,17.1,0001.9,0020.57,0009.89,0008.41
2022-09-02 20:53:00,,0829.9,5.00,0.00,29.3,27.5,00.0,37.9,31.1,17.1,0002.6,0021.49,0009.87,0008.39
2022-09-02 20:54:00,,0829.9,5.01,0.00,29.3,27.8,00.0,37.9,31.2,17.2,0000.0,0022.49,0009.83,0008.35
2022-09-02 20:55:00,,0829.9,4.99,0.00,29.3,28.0,00.0,37.9,31.2,17.3,0000.4,0022.74,0009.78,0008.33
2022-09-02 20:56:00,,0829.9,4.99,0.00,29.4,27.7,00.0,37.9,31.3,17.2,0001.3,0023.64,0009.75,0008.31
2022-09-02 20:57:00,,0829.8,5.00,0.00,29.4,26.6,00.0,37.9,31.2,17.1,0000.9,0024.40,0009.71,0008.29
2022-09-02 20:58:00,,0830.0,5.00,0.00,29.3,26.5,00.0,37.9,31.1,17.5,0002.0,0024.03,0009.69,0008.28
2022-09-02 20:59:00,,0829.8,5.01,0.00,29.3,26.8,00.0,37.9,31.1,17.5,0002.3,0024.49,0009.70,0008.26
